Regional Weather Roundup
Issued by NWS

Home | Current Version | Previous Version | Text Only | Print | Product List | Glossary On
Versions: 1 2 3 4 5 6 7 8 9 10 11 12 13 14 15 16 17 18 19 20 21 22 23 24 25 26 27 28
000
ASUS45 KTFX 110110
RWRMT
MONTANA REGIONAL WEATHER ROUNDUP
NATIONAL WEATHER SERVICE GREAT FALLS MT
600 PM MST SAT DEC 10 2016

NOTE: "FAIR" INDICATES FEW OR NO CLOUDS BELOW 12000 FEET WITH NO
SIGNIFICANT WEATHER AND/OR OBSTRUCTIONS TO VISIBILITY.

MTZ001>007-043-110200-
WEST OF THE DIVIDE

CITY           SKY/WX    TMP DP  RH WIND       PRES   REMARKS
KALISPELL      CLOUDY    15  11  83 CALM      29.88R
MISSOULA       CLOUDY    22  19  89 W3        29.87R
BUTTE          CLEAR     17   8  67 S6        29.75R WCI   9
MULLAN PASS    FOG       16  15  96 VRB5      29.73R VSB 1/2
ANACONDA         N/A     25  14  63 CALM      29.77R
DEER LODGE       N/A     25  16  68 W5        29.80R
EUREKA           N/A      7   1  78 CALM      29.92S
HAMILTON         N/A     19  14  79 CALM      29.82R
LIBBY            N/A     10   9  92 S3        29.90R
PLAINS           N/A     21  13  71 CALM      29.91
RONAN            N/A     16  10  77 CALM      29.90R
$$

MTZ008-052>055-110200-
SOUTHWEST MONTANA

CITY           SKY/WX    TMP DP  RH WIND       PRES   REMARKS
BOZEMAN        CLOUDY    14  13  95 CALM      29.76R FOG
DILLON         CLEAR     25  14  63 S13       29.74S WCI  14
W YELLOWSTONE  FLURRIES  27  27 100 SW3       29.73R
ENNIS          CLEAR     25  19  80 S6        29.78S WCI  18
$$

MTZ009-010-012-014-046-048-049-054-110200-
EAST SLOPES AND CENTRAL MONTANA

CITY           SKY/WX    TMP DP  RH WIND       PRES   REMARKS
CUT BANK       MOCLDY    -8 -11  86 N12       29.76R WCI -27
GREAT FALLS    CLOUDY    -1  -4  87 SE5       29.75R
MALMSTROM AFB  CLOUDY    -1  -3  94 S3        29.77R
HELENA         CLEAR     18  10  71 SW5       29.75S
AUGUSTA          N/A     18   9  67 NE2       29.69R
BOWMANS CRNR     N/A     18   8  67 SW6       29.69R WCI   9
CHOTEAU          N/A      0  -4  85 MISG      29.75S
FAIRFIELD        N/A      1  -4  77 NE7       29.73R WCI -11
POWER            N/A     -2  -6  86 N3        29.74R
RAYNESFORD       N/A      0  -4  83 E9        29.74R WCI -16
ULM              N/A     -3  -6  87 N6G13     29.75R WCI -15
$$

MTZ011-013-016-021-045-047-050-051-110200-
NORTH CENTRAL MONTANA

CITY           SKY/WX    TMP DP  RH WIND       PRES   REMARKS
HAVRE          LGT SNOW   3   0  87 W5        29.85S FOG
LEWISTOWN      CLOUDY    -2  -5  87 S6        29.71R WCI -14
N BAR RANCH      N/A     10   7  85 CALM      29.66S
CHINOOK          N/A      5   0  78 CALM      29.87R
DENTON         FLURRIES   2   1  95 W17       29.73R WCI -18
FORT BENTON      N/A      3  -2  78 CALM      29.84R
GEYSER           N/A      3   0  89 S9        29.70R WCI -12
GRASS RANGE      N/A      2  -1  88 E7        29.68R FOG     WCI -11
JUDITH GAP       N/A      6   2  84 N10G18    29.66R WCI  -9
ROY            MOCLDY     2  -1  87 MISG      29.72R
STANFORD         N/A      2   2  98 W5        29.68R
WINIFRED       FLURRIES   4   2  90 MISG      29.74R
$$

MTZ017>020-022>027-061-062-110200-
NORTHEAST MONTANA

CITY           SKY/WX    TMP DP  RH WIND       PRES   REMARKS
GLASGOW        LGT SNOW   2  -3  80 E14       29.86F VSB 3/4 WCI -16
SIDNEY         LGT SNOW   1  -3  83 E14       29.91F FOG     WCI -17
WOLF POINT     LGT SNOW   5   0  79 E10       29.89F VSB 3/4 WCI -10
PLENTYWOOD       N/A      0  -4  85 E20G25    29.89F VSB 1   WCI -22
POPLAR           N/A      1  -2  85 E14       29.89R VSB 1/2 WCI -17
$$

MTZ028>42-056>058-110200-
SOUTHCENTRAL AND SOUTHEAST MONTANA

CITY           SKY/WX    TMP DP  RH WIND       PRES   REMARKS
BAKER          LGT SNOW   2  -4  76 SE21      29.76F WCI -20
BILLINGS       CLOUDY    20  16  84 SW21      29.70R WCI   4
LIVINGSTON     CLOUDY    30  20  66 SW12      29.71R WCI  20
MILES CITY     CLOUDY    11   6  81 SE6       29.76F WCI   1
BIG TIMBER     MOCLDY    32  21  64 W20G26    29.71S WCI  20
FORSYTH          N/A     10   9  92 CALM      29.76R
HARLOWTON        N/A     26  16  65 W23G32    29.66R WCI  11
ROUNDUP          N/A     13   6  73 N7        29.67  WCI   3
$$

REGIONAL REPORTS...DAKOTAS

CITY           SKY/WX    TMP DP  RH WIND       PRES   REMARKS
WILLISTON      LGT SNOW   3  -4  72 SE14G22   29.94F WCI -15
MINOT          CLOUDY    -5 -10  79 E12       30.08S WCI -23
DICKINSON      FLURRIES  -4  -9  79 E18       29.84F WCI -26
BEACH          LGT SNOW   1  -2  85 SE16      29.83F WCI -18
CROSBY         CLOUDY    -4  -9  77 E17       30.02R WCI -26
TIOGA          CLOUDY    -2  -4  92 SE22      29.95F WCI -26
WATFORD CITY   LGT SNOW   0  -6  78 SE13      29.94S WCI -18
BISMARCK       CLOUDY    -2  -6  83 E13       30.05S WCI -20
GRAND FORKS    CLOUDY    -3  -9  75 NE6       30.27F WCI -15
FARGO          CLOUDY     2  -5  72 NE9       30.22F WCI -13
BUFFALO SD       N/A      2  -3  80 SE13      29.71S WCI -15
RAPID CITY     CLOUDY     5   1  83 E8        29.73R WCI  -8
$$

REGIONAL REPORTS...WYOMING/IDAHO/WASHINGTON

CITY           SKY/WX    TMP DP  RH WIND       PRES   REMARKS
GILLETTE       CLOUDY    18  15  88 N14       29.62R WCI   4
SHERIDAN       LGT SNOW  20  17  88 S10       29.72R VSB 3/4 WCI   9
BUFFALO WY     CLOUDY    23  16  74 NW18      29.64R WCI   9
CODY           CLOUDY    26  24  92 NE5       29.69R
YELLOWSTONE LA   N/A     26  21  81 W8        29.70R WCI  18
IDAHO FALLS    CLOUDY    35  32  88 SW21      29.77R WCI  24
SALMON         CLOUDY    19  18  93 CALM      29.84R
BOISE          FOG       32  32 100 W7        29.90R VSB 1/4 WCI  26
SPOKANE        CLOUDY    21  18  88 SE5       29.92S
$$

REGIONAL REPORTS...ALBERTA

CITY           SKY/WX    TMP DP  RH WIND       PRES   REMARKS
EDMONTON       CLOUDY    -6 -13  71 NW3       29.98R
CALGARY        PTCLDY    -6 -11  77 N5        29.80R
LETHBRIDGE     MOCLDY    -9 -11  92 W3        29.86R
MEDICINE HAT   LGT SNOW   3   0  85 NW7       29.90R VSB 3/4 WCI  -9
WATERTON GATE    N/A    -11 -17  77 NE2         N/A
CARDSTON         N/A     -9 -15  77 SW5         N/A
MILK RIVER       N/A     -4  -8  84 NW9         N/A  WCI -20
ONEFOUR          N/A      1  -2  85 W8          N/A  WCI -12
$$

REGIONAL REPORTS...SASKATCHEWAN

CITY           SKY/WX    TMP DP  RH WIND       PRES   REMARKS
SWIFT CURRENT  FLURRIES   1  -2  85 E16       29.85S WCI -18
REGINA         CLOUDY    -8 -17  65 E16       30.02F WCI -30
SASKATOON      PTCLDY    -2  -9  71 SE12      30.09R WCI -20
VAL MARIE        N/A      1  -2  85 E6          N/A  WCI -10
ROCKGLEN         N/A     -2  -4  92 SE13        N/A  WCI -21
ASSINIBOIA       N/A     -2  -8  78 E3          N/A
$$




USA.gov is the U.S. government's official web portal to all federal, state and local government web resources and services.